TimeEST,TemperatureF,Dew PointF,Humidity,Sea Level PressureIn,VisibilityMPH,Wind Direction,Wind SpeedMPH,Gust SpeedMPH,PrecipitationIn,Events,Conditions,WindDirDegrees,DateUTC
12:53 AM,28.9,8.1,41,30.12,10.0,WSW,10.4,-,N/A,,Clear,240,2013-02-19 05:53:00
1:53 AM,28.9,9.0,43,30.11,10.0,WSW,6.9,-,N/A,,Clear,240,2013-02-19 06:53:00
2:53 AM,27.0,10.0,49,30.08,10.0,SW,3.5,-,N/A,,Clear,220,2013-02-19 07:53:00
3:53 AM,26.1,10.0,51,30.06,10.0,Calm,Calm,-,N/A,,Clear,0,2013-02-19 08:53:00
4:53 AM,25.0,10.0,53,30.03,10.0,South,4.6,-,N/A,,Clear,170,2013-02-19 09:53:00
5:53 AM,24.1,12.0,60,30.01,10.0,South,6.9,-,N/A,,Clear,170,2013-02-19 10:53:00
6:53 AM,26.1,15.1,63,30.00,10.0,Variable,3.5,-,N/A,,Clear,0,2013-02-19 11:53:00
7:53 AM,30.0,18.0,61,29.97,10.0,South,10.4,16.1,N/A,,Clear,170,2013-02-19 12:53:00
8:53 AM,30.0,19.0,64,29.94,10.0,SSE,10.4,16.1,N/A,,Clear,160,2013-02-19 13:53:00
9:53 AM,30.0,19.0,64,29.90,10.0,SE,11.5,-,N/A,,Clear,140,2013-02-19 14:53:00
10:53 AM,32.0,21.0,64,29.90,10.0,South,11.5,20.7,N/A,,Overcast,180,2013-02-19 15:53:00
11:12 AM,32.0,21.2,64,29.83,2.5,South,11.5,24.2,0.00,Snow,Light Snow,180,2013-02-19 16:12:00
11:22 AM,30.2,24.8,80,29.82,1.8,South,9.2,18.4,0.00,Snow,Light Snow,180,2013-02-19 16:22:00
11:29 AM,30.2,24.8,80,29.83,3.0,South,15.0,21.9,0.00,Snow,Light Snow,190,2013-02-19 16:29:00
11:37 AM,30.2,24.8,80,29.82,1.8,South,9.2,21.9,0.00,Snow,Light Snow,180,2013-02-19 16:37:00
11:43 AM,30.2,24.8,80,29.82,0.8,South,8.1,20.7,0.00,Snow,Light Snow,190,2013-02-19 16:43:00
11:49 AM,30.2,26.6,86,29.81,0.8,South,6.9,17.3,0.00,Snow,Light Snow,180,2013-02-19 16:49:00
11:53 AM,30.0,26.1,85,29.88,0.8,South,8.1,-,0.00,Snow,Light Snow,190,2013-02-19 16:53:00
11:57 AM,30.2,26.6,86,29.81,1.0,South,9.2,-,0.00,Snow,Light Snow,190,2013-02-19 16:57:00
12:10 PM,30.2,26.6,86,29.79,0.5,SSE,11.5,-,0.00,Fog-Snow,Snow,160,2013-02-19 17:10:00
12:18 PM,30.2,26.6,86,29.79,0.2,South,6.9,17.3,0.00,Fog-Snow,Snow,170,2013-02-19 17:18:00
12:36 PM,30.2,28.4,93,29.77,0.2,SSE,11.5,-,0.00,Fog-Snow,Snow,160,2013-02-19 17:36:00
12:49 PM,30.2,28.4,93,29.76,0.5,South,10.4,-,0.00,Fog-Snow,Light Snow,180,2013-02-19 17:49:00
1:10 PM,30.2,28.4,93,29.75,0.8,South,9.2,-,0.00,Snow,Light Snow,180,2013-02-19 18:10:00
1:53 PM,32.0,28.9,88,29.78,1.0,South,12.7,23.0,0.00,Snow,Light Snow,190,2013-02-19 18:53:00
2:22 PM,32.0,30.2,93,29.70,2.5,SSW,13.8,18.4,0.00,Snow,Light Snow,200,2013-02-19 19:22:00
2:32 PM,32.0,30.2,93,29.70,1.0,SSW,12.7,-,0.00,Snow,Light Snow,200,2013-02-19 19:32:00
2:53 PM,32.0,30.0,92,29.75,1.0,SSW,9.2,16.1,0.00,Snow,Light Snow,200,2013-02-19 19:53:00
3:33 PM,32.0,30.2,93,29.67,0.5,SSW,8.1,18.4,0.01,Fog-Snow,Snow,200,2013-02-19 20:33:00
3:53 PM,32.0,30.0,92,29.73,1.0,South,6.9,-,0.02,Snow,Light Snow,190,2013-02-19 20:53:00
4:13 PM,33.8,30.2,87,29.65,3.0,South,8.1,-,0.00,Snow,Light Snow,190,2013-02-19 21:13:00
4:27 PM,33.8,30.2,87,29.65,2.0,South,9.2,-,0.00,Snow,Light Snow,190,2013-02-19 21:27:00
4:36 PM,33.8,30.2,87,29.64,1.8,SSW,6.9,-,0.01,Snow,Light Snow,200,2013-02-19 21:36:00
4:44 PM,33.8,30.2,87,29.64,3.0,SSW,8.1,-,0.01,Snow,Light Snow,200,2013-02-19 21:44:00
4:53 PM,33.1,30.9,92,29.70,4.0,SSW,8.1,-,0.01,Snow,Light Snow,210,2013-02-19 21:53:00
5:31 PM,33.8,32.0,93,29.64,0.2,SSW,10.4,-,0.00,Fog,Fog,210,2013-02-19 22:31:00
5:53 PM,33.1,32.0,96,29.70,0.2,SW,9.2,-,0.00,Fog,Fog,220,2013-02-19 22:53:00
7:36 PM,33.8,30.2,87,29.64,10.0,West,13.8,24.2,0.00,,Overcast,270,2013-02-20 00:36:00
7:53 PM,33.1,30.9,92,29.70,10.0,West,18.4,26.5,0.00,,Overcast,280,2013-02-20 00:53:00
7:59 PM,33.8,30.2,87,29.64,10.0,West,13.8,26.5,N/A,,Overcast,280,2013-02-20 00:59:00
8:53 PM,30.9,25.0,79,29.71,10.0,WNW,20.7,28.8,N/A,,Partly Cloudy,290,2013-02-20 01:53:00
9:53 PM,28.9,21.9,75,29.71,10.0,WNW,25.3,38.0,N/A,,Mostly Cloudy,290,2013-02-20 02:53:00
10:53 PM,27.0,18.0,69,29.71,10.0,West,21.9,35.7,0.00,,Clear,280,2013-02-20 03:53:00
11:53 PM,26.1,18.0,71,29.73,10.0,WNW,17.3,26.5,N/A,,Mostly Cloudy,290,2013-02-20 04:53:00